Weather History for KTMB - December, 2012

Change the Weather History Date:

Wednesday, December 12, 2012

  Actual Average (KMIA) Record (KMIA)
Temperature  
Mean Temperature 78 °F 71 °F  
Max Temperature 84 °F 78 °F 87 °F (1986)
Min Temperature 73 °F 64 °F 30 °F (1934)
Degree Days  
Heating Degree Days 0 1  
Month to date heating degree days 8  
Since 1 July heating degree days 11  
Cooling Degree Days 14 7  
Month to date cooling degree days 89  
Year to date cooling degree days 4461  
Growing Degree Days 28 (Base 50)    
Moisture  
Dew Point 71 °F    
Average Humidity 80    
Maximum Humidity 94    
Minimum Humidity 62    
Precipitation  
Precipitation 0.00 in 0.07 in 0.51 in (1966)
Month to date precipitation 0.83  
Year to date precipitation 60.69  
Snow  
Snow 0.00 in - - ()
Month to date snowfall  
Since 1 July snowfall  
Snow Depth -    
Sea Level Pressure  
Sea Level Pressure 30.06 in    
Wind  
Wind Speed 6 mph (SSE)    
Max Wind Speed 15 mph    
Max Gust Speed 20 mph    
Visibility 10 miles    
Events      
T = Trace of Precipitation, MM = Missing Value Source: NWS Daily Summary

Daily Weather History Graph

Daily Weather History Graph

Search for Another Location

Airport or City:

Trip Planner

Search our weather history database for the weather conditions in past years. The results will help you decide how hot, cold, wet, or windy it might be!

Date:

Astronomy

Dec. 12, 2012 Rise Set
Actual Time 6:58 AM EST 5:32 PM EST
Civil Twilight 6:33 AM EST 5:57 PM EST
Nautical Twilight 6:05 AM EST 6:26 PM EST
Astronomical Twilight 5:37 AM EST 6:54 PM EST
Moon 6:03 AM EST (12/12) 5:06 PM EST (12/12)
Length of Visible Light 11h 23m
Length of Day
10h 33m
Waning Crescent, 1% of the Moon is Illuminated
Dec 12
Waning Crescent
Dec 13
New
Dec 20
First Quarter
Dec 28
Full
Jan 4
Last Quarter

Hourly Weather History & Observations

Time (EST) Temp. Heat Index Dew Point Humidity Pressure Visibility Wind Dir Wind Speed Gust Speed Precip Events Conditions
12:53 AM 75.9 °F - 73.0 °F 91% 30.05 in 10.0 mi SSE 4.6 mph - N/A   Clear
1:53 AM 75.9 °F - 73.0 °F 91% 30.04 in 10.0 mi SE 5.8 mph - N/A   Clear
2:53 AM 75.0 °F - 73.0 °F 94% 30.04 in 10.0 mi SSE 4.6 mph - N/A   Scattered Clouds
3:53 AM 75.0 °F - 73.0 °F 94% 30.04 in 10.0 mi SE 4.6 mph - N/A   Clear
4:53 AM 75.9 °F - 72.0 °F 87% 30.03 in 10.0 mi SE 8.1 mph - N/A   Clear
5:53 AM 75.9 °F - 72.0 °F 87% 30.04 in 10.0 mi SE 8.1 mph - N/A   Clear
6:53 AM 75.9 °F - 72.0 °F 87% 30.07 in 10.0 mi SSE 4.6 mph - N/A   Clear
7:53 AM 77.0 °F - 72.0 °F 84% 30.08 in 10.0 mi South 4.6 mph - N/A   Clear
8:53 AM 78.1 °F - 71.1 °F 79% 30.11 in 10.0 mi South 6.9 mph - N/A   Partly Cloudy
9:53 AM 79.0 °F - 71.1 °F 77% 30.11 in 10.0 mi SSE 5.8 mph - N/A   Partly Cloudy
10:53 AM 80.1 °F 83.6 °F 71.1 °F 74% 30.09 in 10.0 mi SSE 12.7 mph 19.6 mph N/A   Scattered Clouds
11:53 AM 82.0 °F 85.9 °F 70.0 °F 67% 30.08 in 10.0 mi SSE 12.7 mph - N/A   Scattered Clouds
12:53 PM 82.0 °F 85.9 °F 70.0 °F 67% 30.05 in 10.0 mi SE 15.0 mph - N/A   Scattered Clouds
1:20 PM 82.4 °F 86.3 °F 69.8 °F 66% 30.05 in 10.0 mi South 8.1 mph - N/A   Mostly Cloudy
1:28 PM 84.2 °F 88.4 °F 69.8 °F 62% 30.04 in 10.0 mi SSE 11.5 mph 16.1 mph N/A   Scattered Clouds
1:53 PM 82.9 °F 87.0 °F 70.0 °F 65% 30.04 in 10.0 mi South 9.2 mph - N/A   Scattered Clouds
2:53 PM 82.0 °F 85.9 °F 70.0 °F 67% 30.03 in 10.0 mi South 8.1 mph - N/A   Partly Cloudy
3:53 PM 80.1 °F 83.2 °F 70.0 °F 71% 30.04 in 10.0 mi South 8.1 mph - N/A   Scattered Clouds
4:53 PM 79.0 °F - 70.0 °F 74% 30.06 in 10.0 mi SSW 5.8 mph - N/A   Mostly Cloudy
5:53 PM 78.1 °F - 70.0 °F 76% 30.07 in 10.0 mi SSW 4.6 mph - N/A   Clear
6:53 PM 77.0 °F - 70.0 °F 79% 30.08 in 10.0 mi Calm Calm - N/A   Scattered Clouds
7:53 PM 75.0 °F - 70.0 °F 84% 30.09 in 10.0 mi SSE 3.5 mph - N/A   Clear
8:53 PM 75.0 °F - 70.0 °F 84% 30.09 in 10.0 mi South 3.5 mph - N/A   Clear
9:53 PM 73.9 °F - 70.0 °F 87% 30.08 in 10.0 mi Calm Calm - N/A   Clear
10:53 PM 73.0 °F - 70.0 °F 90% 30.08 in 10.0 mi SE 3.5 mph - N/A   Clear
11:53 PM 73.0 °F - 70.0 °F 90% 30.07 in 10.0 mi Calm Calm - N/A   Clear